User: anonymous   Login
Location: Montr�al
(45.5000°N, 73.5830°W)
Time: 10:44:37
(UTC-04:00)
Language:

Cosmos 2369 - Orbit

View from above orbital plane
View from above orbital plane
View from above satellite
View from above satellite

Ground track
Ground track

The orbit data is extracted from the following two-line orbital elements,

1 26069U 00006A   15239.16687553 -.00000199  00000-0 -80540-4 0  9992
2 26069 070.9942 301.6843 0010508 163.9234 196.2223 14.13296792802866
Epoch (UTC): 27 August 2015 04:00:18
Eccentricity: 0.0010508
inclination: 70.9942°
perigee height: 840 km
apogee height: 856 km
right ascension of ascending node: 301.6843°
argument of perigee: 163.9234°
revolutions per day: 14.13296792
mean anomaly at epoch: 196.2223°
orbit number at epoch: 80286

The dashed part of the orbit path shows where the satellite is in the earth's shadow,  

DLR